DW5657 Weather Reports


Display with metric or nautical units.
time (UTC)temp
F
wind
direction
speed
MPH
gust
MPH
rain 1hr
in
rain 24hr
in
rain mn
in
humidity
%
barometer
mb
20260509153703 66 89 1.0 3.0 0.00 0.04 0.04 72 1007.8
20260509153204 66 115 1.0 5.0 0.00 0.04 0.04 73 1007.7
20260509152704 65 119 1.0 6.0 0.00 0.04 0.04 74 1007.7
20260509152204 65 77 3.0 12.0 0.00 0.04 0.04 76 1007.7
20260509151203 65 128 2.0 10.0 0.00 0.04 0.04 75 1007.7
20260509150704 64 100 0.0 6.0 0.00 0.04 0.04 77 1007.6
20260509145703 63 92 0.0 5.0 0.00 0.04 0.04 78 1007.4
20260509145205 63 139 0.0 2.0 0.00 0.04 0.04 80 1007.5
20260509144705 62 106 1.0 6.0 0.00 0.04 0.04 81 1007.5
20260509144205 62 130 2.0 6.0 0.00 0.04 0.04 81 1007.5
20260509143704 61 132 1.0 6.0 0.00 0.04 0.04 81 1007.5
20260509143204 61 131 1.0 7.0 0.00 0.04 0.04 82 1007.5
20260509142703 61 135 0.0 7.0 0.00 0.04 0.04 85 1007.4
20260509142203 60 24 1.0 5.0 0.00 0.04 0.04 87 1007.4
20260509141204 59 139 0.0 5.0 0.00 0.04 0.04 92 1007.4
20260509140704 59 112 0.0 3.0 0.00 0.04 0.04 92 1007.4
20260509140204 58 120 0.0 3.0 0.00 0.04 0.04 93 1007.5
20260509135704 58 100 0.0 0.0 0.00 0.04 0.04 94 1007.5
20260509135205 57 69 0.0 2.0 0.00 0.04 0.04 94 1007.6
20260509134704 57 71 0.0 3.0 0.00 0.04 0.04 94 1007.6
20260509133704 56 93 0.0 0.0 0.00 0.04 0.04 93 1007.5
20260509133203 56 87 0.0 0.0 0.00 0.04 0.04 94 1007.6
20260509132703 56 71 0.0 0.0 0.00 0.04 0.04 93 1007.5
20260509132203 56 82 0.0 1.0 0.00 0.04 0.04 93 1007.4
20260509131705 56 38 0.0 2.0 0.00 0.04 0.04 93 1007.3
20260509131205 56 47 0.0 2.0 0.00 0.04 0.04 93 1007.1
20260509130704 55 69 1.0 5.0 0.00 0.04 0.04 94 1007.1
20260509130204 55 90 0.0 1.0 0.01 0.04 0.04 94 1007.1
20260509125704 55 74 0.0 1.0 0.01 0.04 0.04 93 1007.2
20260509125205 55 89 0.0 2.0 0.01 0.04 0.04 93 1007.2
20260509124704 55 84 0.0 0.0 0.01 0.04 0.04 93 1007.2
20260509124203 55 92 0.0 1.0 0.01 0.04 0.04 93 1007.1
20260509123704 55 91 1.0 3.0 0.01 0.04 0.04 93 1007.1
20260509123204 55 77 0.0 2.0 0.01 0.04 0.04 93 1007.2
20260509122703 55 77 0.0 1.0 0.01 0.04 0.04 93 1007.4
20260509121705 55 82 0.0 1.0 0.01 0.04 0.04 93 1007.5
20260509120704 55 54 0.0 1.0 0.01 0.04 0.04 93 1007.3
20260509115203 55 61 0.0 0.0 0.00 0.03 0.03 93 1007.4
20260509114704 55 59 0.0 0.0 0.00 0.03 0.03 93 1007.4
20260509114205 55 63 0.0 2.0 0.00 0.03 0.03 93 1007.3
20260509113704 55 59 1.0 3.0 0.01 0.03 0.03 93 1007.2
20260509112203 55 79 0.0 2.0 0.02 0.03 0.03 92 1007.2
20260509111704 55 148 0.0 0.0 0.02 0.03 0.03 92 1007.2
20260509110704 55 148 0.0 0.0 0.02 0.03 0.03 92 1006.9
20260509110205 55 147 0.0 0.0 0.02 0.03 0.03 92 1007.0
20260509105704 55 147 0.0 0.0 0.02 0.03 0.03 92 1007.1
20260509104705 55 148 0.0 0.0 0.02 0.03 0.03 92 1007.5
20260509104205 55 147 0.0 0.0 0.02 0.03 0.03 92 1007.5
20260509103204 55 148 0.0 0.0 0.01 0.02 0.02 92 1007.6
20260509102703 55 147 0.0 0.0 0.01 0.02 0.02 92 1007.6
20260509102204 55 147 0.0 0.0 0.00 0.01 0.01 92 1007.6
20260509101704 55 148 0.0 0.0 0.00 0.01 0.01 92 1007.6
20260509101205 55 146 0.0 0.0 0.00 0.01 0.01 92 1007.7
20260509100704 55 145 0.0 0.0 0.00 0.01 0.01 92 1007.7
20260509100204 55 146 0.0 0.0 0.00 0.01 0.01 92 1007.7
20260509095704 55 144 0.0 0.0 0.00 0.01 0.01 92 1007.8
20260509095204 55 145 0.0 0.0 0.00 0.01 0.01 92 1007.7
20260509094704 55 145 0.0 0.0 0.00 0.01 0.01 92 1007.7
20260509094206 55 145 0.0 0.0 0.00 0.01 0.01 92 1007.6
20260509093704 55 145 0.0 0.0 0.00 0.01 0.01 92 1007.6
20260509092703 55 145 0.0 0.0 0.00 0.01 0.01 92 1007.6
20260509091704 55 145 0.0 0.0 0.00 0.01 0.01 91 1007.7
20260509091204 55 146 0.0 0.0 0.00 0.01 0.01 91 1007.9
20260509090703 55 147 0.0 0.0 0.00 0.01 0.01 91 1008.0
20260509090203 55 147 0.0 0.0 0.00 0.01 0.01 91 1008.2
20260509085703 55 147 0.0 0.0 0.00 0.01 0.01 91 1008.2
20260509084704 55 145 0.0 0.0 0.00 0.01 0.01 91 1008.3
20260509084204 55 145 0.0 0.0 0.00 0.01 0.01 91 1008.3
20260509083704 55 145 0.0 0.0 0.00 0.01 0.01 91 1008.4
20260509083204 55 143 0.0 0.0 0.00 0.01 0.01 91 1008.5
20260509082705 55 143 0.0 0.0 0.00 0.01 0.01 91 1008.5
20260509081704 55 157 0.0 0.0 0.00 0.01 0.01 91 1008.5
20260509081204 55 157 0.0 0.0 0.00 0.01 0.01 90 1008.4
20260509080704 55 157 0.0 0.0 0.00 0.01 0.01 90 1008.3
20260509075205 55 158 0.0 0.0 0.00 0.01 0.01 90 1008.3
20260509074203 55 157 0.0 0.0 0.00 0.01 0.01 90 1008.2
20260509073704 55 158 0.0 0.0 0.00 0.01 0.01 90 1008.1
20260509073204 55 159 0.0 0.0 0.00 0.01 0.01 90 1008.2
20260509072703 55 158 0.0 0.0 0.00 0.01 0.01 90 1008.4
20260509071705 55 160 0.0 0.0 0.00 0.01 0.01 90 1008.5
20260509071203 55 160 0.0 0.0 0.00 0.01 0.01 90 1008.7
20260509070704 55 158 0.0 0.0 0.00 0.01 0.01 90 1008.7
20260509070203 55 158 0.0 0.0 0.00 0.01 0.01 90 1008.8
20260509065704 55 158 0.0 0.0 0.00 0.01 0.01 90 1008.8
20260509065204 55 157 0.0 0.0 0.00 0.01 0.01 90 1008.9
20260509064705 55 158 0.0 0.0 0.00 0.01 0.01 90 1008.9
20260509064203 55 158 0.0 0.0 0.00 0.01 0.01 90 1009.0
20260509063703 55 157 0.0 0.0 0.00 0.01 0.01 90 1009.0
20260509063204 55 156 0.0 0.0 0.00 0.01 0.01 89 1009.1
20260509062704 55 156 0.0 0.0 0.00 0.01 0.01 89 1009.1
20260509061703 55 168 0.0 0.0 0.00 0.01 0.01 89 1009.0
20260509061204 55 170 0.0 0.0 0.01 0.01 0.01 89 1008.9
20260509060704 55 170 0.0 0.0 0.01 0.01 0.01 89 1008.8
20260509060204 55 169 0.0 0.0 0.01 0.01 0.01 89 1008.7
20260509055704 55 171 0.0 0.0 0.01 0.01 0.01 88 1008.7
20260509055204 55 170 0.0 0.0 0.01 0.01 0.01 88 1008.8
20260509054704 55 171 0.0 0.0 0.01 0.01 0.01 88 1008.8
20260509054204 55 171 0.0 0.0 0.01 0.01 0.01 87 1008.8
20260509053704 55 171 0.0 0.0 0.01 0.01 0.01 87 1008.9
20260509053204 56 170 0.0 0.0 0.01 0.01 0.01 87 1008.9
20260509052705 56 170 0.0 0.0 0.01 0.01 0.01 87 1008.9
20260509051705 56 169 0.0 0.0 0.01 0.01 0.01 87 1008.9
20260509051203 56 172 0.0 0.0 0.00 0.00 0.00 86 1008.9
20260509050703 56 169 0.0 0.0 0.00 0.00 0.00 86 1009.0
20260509045205 56 166 0.0 0.0 0.00 0.00 0.00 85 1009.1
20260509044204 56 9 0.0 0.0 0.00 0.00 0.00 84 1009.2
20260509043704 57 9 0.0 0.0 0.00 0.00 0.00 84 1009.2
20260509043204 57 9 0.0 0.0 0.00 0.00 0.00 83 1009.3
20260509042205 57 9 0.0 0.0 0.00 0.00 0.00 83 1009.2
20260509041704 57 28 0.0 0.0 0.00 0.00 0.00 82 1009.2
20260509041204 57 167 0.0 0.0 0.00 0.00 0.00 82 1009.3
20260509040704 57 166 0.0 0.0 0.00 0.00 0.00 81 1009.3
20260509040204 57 164 0.0 0.0 0.00 0.00 0.00 80 1009.4
20260509035704 57 160 0.0 0.0 0.00 0.00 0.00 80 1009.4
20260509035205 58 156 0.0 0.0 0.00 0.00 0.00 79 1009.4
20260509034704 58 156 0.0 0.0 0.00 0.00 0.00 79 1009.5
20260509034204 58 155 0.0 0.0 0.00 0.00 0.00 79 1009.5
20260509033704 58 157 0.0 0.0 0.00 0.00 0.00 78 1009.5
20260509033204 58 157 0.0 0.0 0.00 0.00 0.00 78 1009.5
20260509032703 58 0 0.0 0.0 0.00 0.00 0.00 78 1009.5
20260509032204 58 159 0.0 0.0 0.00 0.00 0.00 77 1009.5
20260509031704 59 159 0.0 0.0 0.00 0.00 0.00 77 1009.6
20260509031204 59 161 0.0 0.0 0.00 0.00 0.00 76 1009.6
20260509030704 59 162 0.0 0.0 0.00 0.00 0.00 76 1009.6
20260509025704 59 225 0.0 0.0 0.00 0.00 0.00 75 1009.6
20260509025203 59 220 0.0 3.0 0.00 0.00 0.00 75 1009.7
20260509024704 60 147 0.0 0.0 0.00 0.00 0.00 75 1009.8
20260509024204 60 133 0.0 2.0 0.00 0.00 0.00 74 1009.7
20260509023704 60 112 0.0 0.0 0.00 0.00 0.00 73 1009.8
20260509023204 61 93 0.0 0.0 0.00 0.00 0.00 72 1009.4
20260509022704 61 92 0.0 0.0 0.00 0.00 0.00 71 1009.4
20260509021704 62 91 0.0 0.0 0.00 0.00 0.00 70 1009.2
20260509021203 62 92 0.0 0.0 0.00 0.00 0.00 70 1009.1
20260509020704 62 91 0.0 0.0 0.00 0.00 0.00 69 1009.1
20260509020204 62 91 0.0 0.0 0.00 0.00 0.00 69 1009.1
20260509015704 63 89 0.0 0.0 0.00 0.00 0.00 67 1009.1
20260509015205 63 93 0.0 0.0 0.00 0.00 0.00 66 1009.2
20260509014704 63 88 0.0 0.0 0.00 0.00 0.00 66 1009.3
20260509014205 64 86 1.0 3.0 0.00 0.00 0.00 64 1009.3
20260509013203 64 81 2.0 12.0 0.00 0.00 0.00 58 1009.2
20260509012704 64 79 1.0 5.0 0.00 0.00 0.00 58 1009.2
20260509012204 65 80 2.0 6.0 0.00 0.00 0.00 57 1009.2
20260509011704 65 78 0.0 6.0 0.00 0.00 0.00 56 1009.2
20260509011204 65 84 0.0 0.0 0.00 0.00 0.00 57 1009.2
20260509010705 65 89 0.0 1.0 0.00 0.00 0.00 55 1009.2
20260509010204 65 82 1.0 5.0 0.00 0.00 0.00 55 1009.1
20260509005204 66 80 0.0 0.0 0.00 0.00 0.00 55 1008.8
20260509004704 66 81 0.0 1.0 0.00 0.00 0.00 54 1008.7
20260509004204 66 78 0.0 6.0 0.00 0.00 0.00 52 1008.6
20260509003704 66 79 1.0 6.0 0.00 0.00 0.00 50 1008.5
20260509003204 66 82 0.0 3.0 0.00 0.00 0.00 51 1008.5
20260509002704 66 77 1.0 3.0 0.00 0.00 0.00 50 1008.5
20260509002204 66 73 0.0 2.0 0.00 0.00 0.00 51 1008.6
20260509001704 66 79 0.0 2.0 0.00 0.00 0.00 51 1008.6
20260509001204 66 84 1.0 5.0 0.00 0.00 0.00 51 1008.7
20260509000703 66 78 0.0 2.0 0.00 0.00 0.00 51 1008.7
20260509000204 66 83 1.0 5.0 0.00 0.00 0.00 52 1008.7
20260508235703 66 75 1.0 3.0 0.00 0.00 0.00 51 1008.7
20260508235204 66 78 0.0 1.0 0.00 0.00 0.00 52 1008.6
20260508234704 66 76 0.0 0.0 0.00 0.00 0.00 53 1008.5
20260508234204 66 60 0.0 0.0 0.00 0.00 0.00 53 1008.6
20260508233704 66 77 0.0 0.0 0.00 0.00 0.00 54 1008.5
20260508233204 66 65 0.0 2.0 0.00 0.00 0.00 54 1008.6
20260508232704 67 76 1.0 2.0 0.00 0.00 0.00 53 1008.7
20260508232204 67 77 0.0 3.0 0.00 0.00 0.00 52 1008.8
20260508231704 67 66 1.0 3.0 0.00 0.00 0.00 51 1008.8
20260508231203 67 61 1.0 3.0 0.00 0.00 0.00 50 1008.6
20260508230704 67 60 0.0 2.0 0.00 0.00 0.00 49 1008.6
20260508230204 68 50 0.0 3.0 0.00 0.00 0.00 49 1008.6
20260508225704 68 56 2.0 7.0 0.00 0.00 0.00 48 1008.5
20260508225204 68 51 2.0 7.0 0.00 0.00 0.00 46 1008.5
20260508224704 68 47 1.0 3.0 0.00 0.00 0.00 47 1008.6
20260508224204 68 44 1.0 6.0 0.00 0.00 0.00 46 1008.5
20260508223703 68 42 1.0 6.0 0.00 0.00 0.00 46 1008.5
20260508223203 68 41 1.0 8.0 0.00 0.00 0.00 46 1008.4
20260508222705 68 51 1.0 8.0 0.00 0.00 0.00 45 1008.4
20260508221204 68 45 3.0 10.0 0.00 0.00 0.00 45 1008.4
20260508220704 68 34 2.0 6.0 0.00 0.00 0.00 46 1008.4
20260508215203 68 45 5.0 7.0 0.00 0.00 0.00 43 1008.4
20260508214704 68 42 3.0 9.0 0.00 0.00 0.00 44 1008.4
20260508214205 69 44 5.0 10.0 0.00 0.00 0.00 43 1008.4
20260508213704 69 43 3.0 8.0 0.00 0.00 0.00 44 1008.5
20260508213203 69 46 2.0 8.0 0.00 0.00 0.00 43 1008.5
20260508212204 69 39 4.0 13.0 0.00 0.00 0.00 43 1008.6
20260508211704 69 45 6.0 12.0 0.00 0.00 0.00 43 1008.6
20260508210703 69 51 4.0 12.0 0.00 0.00 0.00 44 1008.8
20260508210204 68 48 2.0 12.0 0.00 0.00 0.00 44 1008.8
20260508205704 68 47 4.0 9.0 0.00 0.00 0.00 43 1009.0
20260508205204 68 45 5.0 9.0 0.00 0.00 0.00 43 1009.1
20260508204704 68 43 3.0 9.0 0.00 0.00 0.00 43 1009.2
20260508204205 69 40 5.0 9.0 0.00 0.00 0.00 42 1009.3
20260508203204 69 41 5.0 10.0 0.00 0.00 0.00 43 1009.4
20260508202704 69 35 5.0 9.0 0.00 0.00 0.00 42 1009.4
20260508202205 69 40 5.0 14.0 0.00 0.00 0.00 42 1009.5
20260508201704 69 46 3.0 7.0 0.00 0.00 0.00 42 1009.5
20260508201204 69 54 4.0 12.0 0.00 0.00 0.00 42 1009.7
20260508200704 69 46 3.0 7.0 0.00 0.00 0.00 42 1009.6
20260508200204 69 45 3.0 7.0 0.00 0.00 0.00 43 1009.6
20260508195704 69 40 3.0 8.0 0.00 0.00 0.00 42 1009.7
20260508195204 69 38 2.0 8.0 0.00 0.00 0.00 43 1009.7
20260508194203 69 37 4.0 9.0 0.00 0.00 0.00 42 1009.8
20260508193202 69 33 3.0 12.0 0.00 0.00 0.00 40 1009.8
20260508192703 70 37 4.0 12.0 0.00 0.00 0.00 40 1009.8
20260508192203 70 42 7.0 9.0 0.00 0.00 0.00 39 1009.9
20260508191703 71 66 3.0 9.0 0.00 0.00 0.00 39 1010.1
20260508191204 71 69 5.0 13.0 0.00 0.00 0.00 39 1010.1
20260508190702 71 71 5.0 10.0 0.00 0.00 0.00 42 1010.1
20260508190203 70 65 2.0 8.0 0.00 0.00 0.00 42 1010.1
20260508185703 70 50 4.0 13.0 0.00 0.00 0.00 41 1010.3
20260508185203 70 51 5.0 13.0 0.00 0.00 0.00 39 1010.5
20260508184702 70 58 5.0 13.0 0.00 0.00 0.00 40 1010.6
20260508184203 70 55 6.0 12.0 0.00 0.00 0.00 39 1010.6
20260508183202 70 72 4.0 12.0 0.00 0.00 0.00 42 1010.8
20260508182703 70 74 3.0 12.0 0.00 0.00 0.00 42 1010.9
20260508182203 70 76 4.0 10.0 0.00 0.00 0.00 41 1010.9
20260508181703 69 64 3.0 9.0 0.00 0.00 0.00 44 1011.0
20260508181203 69 51 3.0 13.0 0.00 0.00 0.00 43 1011.1
20260508180703 69 40 5.0 14.0 0.00 0.00 0.00 42 1011.1
20260508180204 68 36 6.0 14.0 0.00 0.00 0.00 42 1011.3
20260508175703 69 45 6.0 14.0 0.00 0.00 0.00 39 1011.3
20260508175203 68 52 6.0 14.0 0.00 0.00 0.00 39 1011.3
20260508174704 68 51 5.0 9.0 0.00 0.00 0.00 41 1011.4
20260508174205 68 49 6.0 12.0 0.00 0.00 0.00 41 1011.4
20260508173703 68 46 5.0 9.0 0.00 0.00 0.00 43 1011.6
20260508173204 68 42 7.0 12.0 0.00 0.00 0.00 42 1011.8
20260508172703 68 46 5.0 10.0 0.00 0.00 0.00 42 1012.0
20260508172203 68 56 4.0 7.0 0.00 0.00 0.00 45 1012.0
20260508171703 68 57 3.0 12.0 0.00 0.00 0.00 45 1012.0
20260508171203 68 66 3.0 10.0 0.00 0.00 0.00 44 1012.0
20260508170702 69 86 5.0 10.0 0.00 0.00 0.00 45 1012.2
20260508170204 68 107 3.0 8.0 0.00 0.00 0.00 46 1012.2
20260508165703 68 97 3.0 7.0 0.00 0.00 0.00 45 1012.4
20260508165204 68 100 5.0 12.0 0.00 0.00 0.00 46 1012.5
20260508164704 68 110 6.0 13.0 0.00 0.00 0.00 45 1012.6
20260508164203 68 110 6.0 13.0 0.00 0.00 0.00 45 1012.8
20260508163703 68 97 4.0 13.0 0.00 0.00 0.00 47 1012.8
20260508163203 67 114 7.0 13.0 0.00 0.00 0.00 45 1012.8
20260508162703 67 104 6.0 12.0 0.00 0.00 0.00 47 1012.9
20260508162203 67 101 5.0 13.0 0.00 0.00 0.00 46 1012.9
20260508161703 67 111 6.0 12.0 0.00 0.00 0.00 48 1012.9
20260508161204 66 117 7.0 14.0 0.00 0.00 0.00 47 1013.0
20260508160704 66 122 6.0 10.0 0.00 0.00 0.00 47 1013.1
20260508160203 66 112 5.0 12.0 0.00 0.00 0.00 47 1013.1
20260508155703 66 107 6.0 12.0 0.00 0.00 0.00 46 1013.2
20260508154702 66 104 5.0 12.0 0.00 0.00 0.00 49 1013.2
20260508154203 65 113 3.0 9.0 0.00 0.00 0.00 49 1013.3